Location: Unspecified
(40.7945°N, 111.1337°W)
Time: 17:49:37
(UTC-06:00)

Vanguard 2 Rocket - All Passes

Search period start: 20 June 2019 00:00
Search period end: 30 June 2019 00:00
Orbit: 554 x 3326 km, 32.9° (Epoch: 20 June)

Date Brightness Start Highest point End Pass type
(mag) Time Alt. Az. Time Alt. Az. Time Alt. Az.
20 Jun - 01:52:45 10° WSW 02:05:04 64° S 02:24:10 10° ESE visible
20 Jun - 04:06:52 10° W 04:22:02 51° SSW 04:41:09 10° SE visible
20 Jun - 06:24:04 10° W 06:38:24 28° SW 06:53:16 10° S daylight
20 Jun - 20:36:56 10° SE 20:37:57 10° SE 20:39:01 10° ESE daylight
20 Jun - 22:42:01 10° SW 22:49:37 40° SSE 23:02:19 10° E visible
21 Jun - 00:53:24 10° WSW 01:04:00 62° S 01:21:41 10° E visible
21 Jun - 03:06:43 10° W 03:20:27 57° SSW 03:39:47 10° SE visible
21 Jun - 05:22:16 10° W 05:37:10 35° SSW 05:54:03 10° SSE visible
21 Jun - 07:46:44 10° WSW 07:52:31 12° SW 07:58:16 10° SSW daylight
21 Jun - 21:44:03 10° SSW 21:50:10 28° SE 21:59:38 10° E visible
21 Jun - 23:54:24 10° WSW 00:03:25 57° SSE 00:19:04 10° E visible
22 Jun - 02:06:58 10° W 02:19:04 60° S 02:37:52 10° ESE visible
22 Jun - 04:21:21 10° W 04:35:44 42° SSW 04:53:52 10° SE visible
22 Jun - 06:40:25 10° W 06:51:42 19° SW 07:03:29 10° S daylight
22 Jun - 20:46:57 10° S 20:51:08 17° SE 20:56:39 10° E daylight
22 Jun - 22:55:44 10° SW 23:03:20 48° SSE 23:16:30 10° E visible
23 Jun - 01:07:35 10° WSW 01:18:02 61° S 01:35:32 10° ESE visible
23 Jun - 03:21:04 10° W 03:34:19 49° SSW 03:52:53 10° SE visible
23 Jun - 05:37:35 10° W 05:50:38 26° SW 06:05:24 10° S daylight
23 Jun - 21:57:25 10° SW 22:03:42 36° SSE 22:14:05 10° E visible
24 Jun - 00:08:31 10° WSW 00:17:25 59° S 00:33:02 10° E visible
24 Jun - 02:21:16 10° W 02:33:04 54° SSW 02:51:16 10° SE visible
24 Jun - 04:36:11 10° W 04:49:25 33° SSW 05:05:54 10° SSE visible
24 Jun - 07:00:52 10° WSW 07:05:04 11° SW 07:09:22 10° SSW daylight
24 Jun - 20:59:36 10° SSW 21:04:31 24° SE 21:11:47 10° E daylight
24 Jun - 23:09:42 10° WSW 23:17:14 53° SSE 23:30:34 10° E visible
25 Jun - 01:21:50 10° W 01:32:06 57° S 01:49:11 10° ESE visible
25 Jun - 03:35:38 10° W 03:48:10 39° SSW 04:05:27 10° SE visible
25 Jun - 05:54:14 10° WSW 06:04:09 18° SW 06:15:07 10° S daylight
25 Jun - 20:02:52 10° SSE 20:05:39 13° SE 20:09:00 10° ESE daylight
25 Jun - 22:11:11 10° SW 22:17:29 44° SSE 22:28:19 10° E visible
26 Jun - 00:22:43 10° WSW 00:31:29 58° S 00:46:52 10° ESE visible
26 Jun - 02:35:41 10° W 02:47:03 45° SSW 03:04:15 10° SE visible
26 Jun - 04:51:41 10° W 05:03:06 24° SW 05:16:55 10° S visible
26 Jun - 21:12:59 10° SW 21:18:09 32° SSE 21:26:19 10° E daylight
26 Jun - 23:23:50 10° WSW 23:31:17 55° S 23:44:32 10° ESE visible
27 Jun - 01:36:11 10° W 01:46:11 50° SSW 02:02:32 10° SE visible
27 Jun - 03:50:36 10° W 04:02:01 30° SSW 04:17:15 10° SSE visible
27 Jun - 20:15:16 10° SSW 20:19:09 20° SE 20:24:27 10° E daylight
27 Jun - 22:25:10 10° WSW 22:31:28 49° SSE 22:42:25 10° E visible
28 Jun - 00:37:00 10° W 00:45:36 53° S 01:00:29 10° ESE visible
28 Jun - 02:50:22 10° W 03:01:02 36° SSW 03:16:39 10° SSE visible
28 Jun - 05:08:51 10° WSW 05:16:50 15° SW 05:25:58 10° S visible
28 Jun - 19:19:19 10° SSE 19:20:20 11° SE 19:21:25 10° SE daylight
28 Jun - 21:26:44 10° SW 21:32:00 39° SSE 21:40:36 10° E visible
28 Jun - 23:38:04 10° WSW 23:45:24 53° S 23:58:23 10° ESE visible
29 Jun - 01:50:41 10° W 02:00:15 41° SSW 02:15:25 10° SE visible
29 Jun - 04:06:24 10° WSW 04:15:54 21° SSW 04:27:53 10° S visible
29 Jun - 20:28:36 10° SSW 20:32:52 28° SSE 20:39:06 10° E daylight
29 Jun - 22:39:19 10° WSW 22:45:32 50° S 22:56:25 10° ESE visible
